Location: Houhaj�rvi
(61.2833°N, 23.0000°E)
Time: 06:16:26
(UTC+00:00)

ATLAS 2AS CENTAUR R/B - Pass Details

Date: 27 February 2020
Orbit: 929 x 1283 km, 63.7° (Epoch: 26 March)

Event Time Altitude Azimuth Distance (km) Brightness Sun altitude
Exits shadow 21:58:03 30° 67° (ENE) 2,062 4.2 -36.4°
Drops below altitude 10° 22:01:31 10° 67° (ENE) 3,182 5.2 -36.5°
Sets 22:04:12 0° 67° (ENE) 4,108 5.9 -36.6°
